Regional Weather Roundup
Issued by NWS

Home | Current Version | Previous Version | Graphics & Text | Print | Product List | Glossary Off
Versions: 1 2 3 4 5 6 7 8 9 10 11 12 13 14 15 16 17 18 19 20 21 22 23 24 25 26 27 28 29 30 31 32 33 34 35 36 37 38 39 40 41 42 43 44 45 46 47 48 49 50

000
ASUS43 KTOP 290659
RWRKS

WEATHER ROUNDUP FOR KANSAS
NATIONAL WEATHER SERVICE GOODLAND KS
100 AM CST SAT NOV 29 2014

NOTE:  "FAIR" INDICATES FEW OR NO CLOUDS BELOW 12,000 FEET WITH NO
SIGNIFICANT WEATHER AND/OR OBSTRUCTIONS TO VISIBILITY.

KSZ001>006-013>018-027>032-041>047-290800-
NORTHWEST KANSAS

CITY           SKY/WX    TMP DP  RH WIND       PRES   REMARKS
GOODLAND       MOCLDY    42  17  36 W13       29.68F
HAYS           CLOUDY    37  21  52 SE5       29.66F
HILL CITY      MOCLDY    34  19  54 CALM      29.65F
RUSSELL        CLOUDY    41  31  67 S12       29.65F
$$

KSZ061>065-074>080-084>089-290800-
SOUTHWEST KANSAS

CITY           SKY/WX    TMP DP  RH WIND       PRES   REMARKS
DODGE CITY     MOCLDY    47  28  47 SW15      29.68F
ELKHART          N/A     53  10  18 W13         N/A
GARDEN CITY    CLOUDY    41  26  55 W10       29.69F
GREAT BEND     CLOUDY    36  27  69 CALM      29.68F
LIBERAL        CLOUDY    43  16  33 SW10      29.72F
$$

KSZ066>073-081>083-090>101-290800-
SOUTHEAST KANSAS

CITY           SKY/WX    TMP DP  RH WIND       PRES   REMARKS
CHANUTE        MOCLDY    52  46  80 S13       29.77F
COFFEYVILLE    CLOUDY    54  47  77 S14       29.78F
HUTCHINSON     MOCLDY    44  38  79 SE8       29.69F
MEDICINE LODGE   N/A     42  37  82 CALM      29.68F
NEWTON         PTCLDY    46  37  71 S9        29.73F
PARSONS        MOCLDY    53  47  79 S8        29.79F
WICHITA INTL   PTCLDY    46  39  76 S10       29.70F
WICHITA JABRA  PTCLDY    46  40  79 S8        29.71F
WINFIELD       PTCLDY    50  43  77 SE6       29.73F
$$

KSZ007>012-019>026-033>040-048>060-102>105-290800-
NORTHEAST KANSAS

CITY           SKY/WX    TMP DP  RH WIND       PRES   REMARKS
CONCORDIA      CLOUDY    49  35  58 SW3       29.66F
EMPORIA        CLOUDY    47  39  74 S13       29.72F
LAWRENCE       CLOUDY    51  39  63 SW8       29.71F
MANHATTAN      CLOUDY    49  39  68 S9        29.68F
OLATHE IND     CLOUDY    53  43  68 S16       29.72F
OLATHE EXE     CLOUDY    51  42  71 S12       29.71F
SALINA         PTCLDY    49  38  65 S13       29.68F
TOPEKA BILLARD CLOUDY    52  39  61 SW9       29.70F
TOPEKA FORBES  CLOUDY    52  39  61 S18       29.68F
$$


USA.gov is the U.S. government's official web portal to all federal, state and local government web resources and services.